Location: Peterborough
(44.3091°N, 78.3197°W)
Time: 05:50:09
(UTC-04:00)

Vanguard 3 - Pass Details

Date: 28 February 2024
Orbit: 510 x 3236 km, 33.3° (Epoch: 12 April)

Event Time Altitude Azimuth Distance (km) Brightness Sun altitude
Rises 00:34:01 0° 274° (W) 7,198 12.0 -53.8°
Reaches altitude 10° 00:39:19 10° 269° (W) 6,099 11.5 -53.7°
Enters shadow 00:42:20 16° 265° (W) 5,475 11.2 -53.7°
Maximum altitude 00:56:08 44° 206° (SSW) 3,241 - -53.2°
Drops below altitude 10° 01:07:29 10° 139° (SE) 4,195 - -52.7°
Sets 01:10:25 0° 133° (SE) 4,860 - -52.6°
